| time (UTC) | temp C | wind direction | speed KPH | gust KPH | rain 1hr cm | rain 24hr cm | rain mn cm | humidity % | barometer mb |
| 20260503185105 | 16 | 247 | 8.0 | 29.0 | 0.00 | 0.00 | 0.00 | 47 | 1009.5 |
| 20260503184959 | 16 | 197 | 9.7 | 29.0 | 0.00 | 0.00 | 0.00 | 45 | 1009.5 |
| 20260503184856 | 16 | 191 | 9.7 | 29.0 | 0.00 | 0.00 | 0.00 | 44 | 1009.5 |
| 20260503184750 | 16 | 203 | 8.0 | 29.0 | 0.00 | 0.00 | 0.00 | 47 | 1009.5 |
| 20260503184645 | 17 | 140 | 8.0 | 29.0 | 0.00 | 0.00 | 0.00 | 47 | 1009.5 |
| 20260503184538 | 16 | 218 | 8.0 | 29.0 | 0.00 | 0.00 | 0.00 | 47 | 1009.6 |
| 20260503184433 | 16 | 246 | 8.0 | 29.0 | 0.00 | 0.00 | 0.00 | 45 | 1009.5 |
| 20260503184327 | 17 | 190 | 8.0 | 29.0 | 0.00 | 0.00 | 0.00 | 45 | 1009.6 |
| 20260503184224 | 17 | 226 | 8.0 | 29.0 | 0.00 | 0.00 | 0.00 | 46 | 1009.6 |
| 20260503184117 | 17 | 259 | 8.0 | 29.0 | 0.00 | 0.00 | 0.00 | 45 | 1009.4 |
| 20260503184010 | 17 | 278 | 8.0 | 29.0 | 0.00 | 0.00 | 0.00 | 45 | 1009.5 |
| 20260503183906 | 17 | 205 | 6.4 | 27.4 | 0.00 | 0.00 | 0.00 | 47 | 1009.6 |
| 20260503183759 | 16 | 257 | 8.0 | 27.4 | 0.00 | 0.00 | 0.00 | 47 | 1009.6 |
| 20260503183655 | 16 | 215 | 8.0 | 27.4 | 0.00 | 0.00 | 0.00 | 48 | 1009.6 |
| 20260503183552 | 16 | 222 | 9.7 | 27.4 | 0.00 | 0.00 | 0.00 | 46 | 1009.6 |
| 20260503183449 | 16 | 208 | 9.7 | 27.4 | 0.00 | 0.00 | 0.00 | 46 | 1009.6 |
| 20260503183346 | 16 | 237 | 9.7 | 27.4 | 0.00 | 0.00 | 0.00 | 46 | 1009.6 |
| 20260503183240 | 16 | 240 | 9.7 | 27.4 | 0.00 | 0.00 | 0.00 | 47 | 1009.8 |
| 20260503183132 | 16 | 231 | 9.7 | 27.4 | 0.00 | 0.00 | 0.00 | 45 | 1009.7 |
| 20260503183029 | 16 | 194 | 9.7 | 27.4 | 0.00 | 0.00 | 0.00 | 46 | 1009.8 |
| 20260503182924 | 16 | 193 | 9.7 | 27.4 | 0.00 | 0.00 | 0.00 | 44 | 1009.7 |
| 20260503182822 | 16 | 186 | 11.3 | 27.4 | 0.00 | 0.00 | 0.00 | 45 | 1009.7 |
| 20260503182716 | 16 | 288 | 11.3 | 27.4 | 0.00 | 0.00 | 0.00 | 44 | 1009.8 |
| 20260503182609 | 16 | 271 | 9.7 | 27.4 | 0.00 | 0.00 | 0.00 | 45 | 1009.9 |
| 20260503182507 | 16 | 283 | 9.7 | 27.4 | 0.00 | 0.00 | 0.00 | 44 | 1009.9 |
| 20260503182400 | 16 | 279 | 8.0 | 25.7 | 0.00 | 0.00 | 0.00 | 45 | 1009.9 |
| 20260503182257 | 16 | 259 | 9.7 | 25.7 | 0.00 | 0.00 | 0.00 | 47 | 1010.0 |
| 20260503182154 | 16 | 195 | 8.0 | 25.7 | 0.00 | 0.00 | 0.00 | 45 | 1010.0 |
| 20260503182048 | 16 | 242 | 8.0 | 25.7 | 0.00 | 0.00 | 0.00 | 44 | 1010.0 |
| 20260503181725 | 16 | 233 | 8.0 | 22.5 | 0.00 | 0.00 | 0.00 | 48 | 1010.0 |
| 20260503181620 | 16 | 207 | 8.0 | 22.5 | 0.00 | 0.00 | 0.00 | 44 | 1010.1 |
| 20260503181517 | 16 | 257 | 8.0 | 22.5 | 0.00 | 0.00 | 0.00 | 46 | 1010.0 |
| 20260503181157 | 16 | 251 | 8.0 | 22.5 | 0.00 | 0.00 | 0.00 | 47 | 1010.0 |
| 20260503181053 | 16 | 259 | 9.7 | 22.5 | 0.00 | 0.00 | 0.00 | 49 | 1010.1 |
| 20260503180730 | 16 | 175 | 8.0 | 22.5 | 0.00 | 0.00 | 0.00 | 47 | 1010.1 |
| 20260503180626 | 16 | 227 | 9.7 | 22.5 | 0.00 | 0.00 | 0.00 | 48 | 1010.2 |
| 20260503180518 | 16 | 198 | 9.7 | 30.6 | 0.00 | 0.00 | 0.00 | 46 | 1010.2 |
| 20260503180413 | 16 | 245 | 9.7 | 30.6 | 0.00 | 0.00 | 0.00 | 49 | 1010.2 |
| 20260503180307 | 16 | 178 | 9.7 | 30.6 | 0.00 | 0.00 | 0.00 | 46 | 1010.3 |
| 20260503180201 | 16 | 252 | 9.7 | 30.6 | 0.00 | 0.00 | 0.00 | 45 | 1010.2 |
| 20260503175840 | 16 | 217 | 9.7 | 30.6 | 0.00 | 0.00 | 0.00 | 46 | 1010.3 |
| 20260503175733 | 16 | 233 | 11.3 | 30.6 | 0.00 | 0.00 | 0.00 | 45 | 1010.4 |
| 20260503175403 | 16 | 239 | 11.3 | 30.6 | 0.00 | 0.00 | 0.00 | 44 | 1010.3 |
| 20260503175258 | 16 | 252 | 11.3 | 30.6 | 0.00 | 0.00 | 0.00 | 47 | 1010.4 |
| 20260503175155 | 16 | 273 | 12.9 | 30.6 | 0.00 | 0.00 | 0.00 | 46 | 1010.4 |
| 20260503175053 | 16 | 281 | 12.9 | 30.6 | 0.00 | 0.00 | 0.00 | 46 | 1010.5 |
| 20260503174950 | 16 | 263 | 12.9 | 30.6 | 0.00 | 0.00 | 0.00 | 45 | 1010.5 |
| 20260503174845 | 16 | 0 | 12.9 | 30.6 | 0.00 | 0.00 | 0.00 | 47 | 1010.5 |
| 20260503174739 | 16 | 230 | 12.9 | 30.6 | 0.00 | 0.00 | 0.00 | 46 | 1010.5 |
| 20260503174637 | 16 | 232 | 12.9 | 30.6 | 0.00 | 0.00 | 0.00 | 44 | 1010.5 |
| 20260503174311 | 16 | 242 | 12.9 | 25.7 | 0.00 | 0.00 | 0.00 | 43 | 1010.5 |
| 20260503174204 | 16 | 250 | 12.9 | 25.7 | 0.00 | 0.00 | 0.00 | 44 | 1010.6 |
| 20260503174101 | 16 | 235 | 12.9 | 25.7 | 0.00 | 0.00 | 0.00 | 43 | 1010.6 |
| 20260503173736 | 16 | 236 | 11.3 | 25.7 | 0.00 | 0.00 | 0.00 | 45 | 1010.6 |
| 20260503173634 | 16 | 257 | 11.3 | 27.4 | 0.00 | 0.00 | 0.00 | 45 | 1010.6 |
| 20260503173529 | 16 | 177 | 11.3 | 27.4 | 0.00 | 0.00 | 0.00 | 43 | 1010.6 |
| 20260503173424 | 16 | 275 | 11.3 | 27.4 | 0.00 | 0.00 | 0.00 | 44 | 1010.7 |
| 20260503173320 | 16 | 232 | 11.3 | 27.4 | 0.00 | 0.00 | 0.00 | 44 | 1010.6 |
| 20260503173213 | 16 | 221 | 11.3 | 27.4 | 0.00 | 0.00 | 0.00 | 44 | 1010.5 |
| 20260503173110 | 16 | 241 | 9.7 | 27.4 | 0.00 | 0.00 | 0.00 | 48 | 1010.7 |
| 20260503173004 | 16 | 299 | 9.7 | 27.4 | 0.00 | 0.00 | 0.00 | 46 | 1010.7 |
| 20260503172901 | 16 | 242 | 11.3 | 27.4 | 0.00 | 0.00 | 0.00 | 45 | 1010.7 |
| 20260503172534 | 16 | 229 | 11.3 | 27.4 | 0.00 | 0.00 | 0.00 | 45 | 1010.8 |
| 20260503172429 | 16 | 210 | 9.7 | 27.4 | 0.00 | 0.00 | 0.00 | 46 | 1010.9 |
| 20260503172324 | 16 | 252 | 11.3 | 27.4 | 0.00 | 0.00 | 0.00 | 45 | 1010.8 |
| 20260503172219 | 16 | 222 | 9.7 | 27.4 | 0.00 | 0.00 | 0.00 | 46 | 1010.7 |
| 20260503172112 | 16 | 221 | 9.7 | 27.4 | 0.00 | 0.00 | 0.00 | 46 | 1010.8 |
| 20260503172008 | 16 | 178 | 9.7 | 27.4 | 0.00 | 0.00 | 0.00 | 48 | 1010.8 |
| 20260503171903 | 16 | 250 | 8.0 | 27.4 | 0.00 | 0.00 | 0.00 | 48 | 1010.8 |
| 20260503171801 | 16 | 274 | 8.0 | 27.4 | 0.00 | 0.00 | 0.00 | 48 | 1010.9 |
| 20260503171656 | 15 | 243 | 8.0 | 25.7 | 0.00 | 0.00 | 0.00 | 49 | 1010.9 |
| 20260503171550 | 15 | 261 | 8.0 | 33.8 | 0.00 | 0.00 | 0.00 | 46 | 1010.9 |
| 20260503171444 | 15 | 222 | 9.7 | 33.8 | 0.00 | 0.00 | 0.00 | 47 | 1010.9 |
| 20260503171341 | 15 | 276 | 9.7 | 33.8 | 0.00 | 0.00 | 0.00 | 46 | 1011.0 |
| 20260503171236 | 15 | 269 | 9.7 | 33.8 | 0.00 | 0.00 | 0.00 | 48 | 1011.0 |
| 20260503171129 | 15 | 236 | 11.3 | 33.8 | 0.00 | 0.00 | 0.00 | 48 | 1011.0 |
| 20260503171022 | 15 | 255 | 11.3 | 33.8 | 0.00 | 0.00 | 0.00 | 49 | 1011.0 |
| 20260503170914 | 15 | 189 | 12.9 | 33.8 | 0.00 | 0.00 | 0.00 | 48 | 1011.0 |
| 20260503170808 | 15 | 239 | 12.9 | 33.8 | 0.00 | 0.00 | 0.00 | 47 | 1011.0 |
| 20260503170706 | 15 | 249 | 12.9 | 33.8 | 0.00 | 0.00 | 0.00 | 47 | 1011.0 |
| 20260503170559 | 15 | 270 | 14.5 | 33.8 | 0.00 | 0.00 | 0.00 | 45 | 1011.0 |
| 20260503170454 | 15 | 267 | 12.9 | 33.8 | 0.00 | 0.00 | 0.00 | 45 | 1011.1 |
| 20260503170132 | 15 | 273 | 11.3 | 33.8 | 0.00 | 0.00 | 0.00 | 47 | 1011.2 |
| 20260503160207 | 12 | 192 | 6.4 | 25.7 | 0.00 | 0.00 | 0.00 | 52 | 1012.0 |
| 20260503150809 | 12 | 258 | 9.7 | 29.0 | 0.00 | 0.00 | 0.00 | 50 | 1012.4 |
| 20260503150706 | 12 | 265 | 9.7 | 29.0 | 0.00 | 0.00 | 0.00 | 50 | 1012.5 |
| 20260503150602 | 12 | 271 | 9.7 | 29.0 | 0.00 | 0.00 | 0.00 | 50 | 1012.5 |
| 20260503150500 | 12 | 277 | 11.3 | 29.0 | 0.00 | 0.00 | 0.00 | 49 | 1012.4 |
| 20260503150355 | 12 | 264 | 11.3 | 29.0 | 0.00 | 0.00 | 0.00 | 50 | 1012.4 |
| 20260503150248 | 12 | 267 | 11.3 | 29.0 | 0.00 | 0.00 | 0.00 | 51 | 1012.5 |
| 20260503140221 | 12 | 230 | 9.7 | 24.1 | 0.00 | 0.00 | 0.00 | 51 | 1012.6 |
| 20260503140114 | 12 | 247 | 9.7 | 24.1 | 0.00 | 0.00 | 0.00 | 51 | 1012.6 |
| 20260503131409 | 10 | 244 | 6.4 | 20.9 | 0.00 | 0.00 | 0.00 | 55 | 1012.7 |
| 20260503131303 | 10 | 241 | 6.4 | 20.9 | 0.00 | 0.00 | 0.00 | 55 | 1012.7 |
| 20260503131157 | 10 | 261 | 6.4 | 20.9 | 0.00 | 0.00 | 0.00 | 55 | 1012.7 |
| 20260503130830 | 10 | 241 | 4.8 | 20.9 | 0.00 | 0.00 | 0.00 | 55 | 1012.7 |
| 20260503130728 | 10 | 229 | 4.8 | 20.9 | 0.00 | 0.00 | 0.00 | 56 | 1012.7 |
| 20260503130624 | 10 | 234 | 4.8 | 14.5 | 0.00 | 0.00 | 0.00 | 56 | 1012.7 |
| 20260503130518 | 10 | 240 | 4.8 | 12.9 | 0.00 | 0.00 | 0.00 | 57 | 1012.7 |
| 20260503130414 | 10 | 209 | 4.8 | 12.9 | 0.00 | 0.00 | 0.00 | 58 | 1012.8 |
| 20260503130311 | 10 | 237 | 4.8 | 12.9 | 0.00 | 0.00 | 0.00 | 58 | 1012.7 |
| 20260503130207 | 10 | 231 | 4.8 | 12.9 | 0.00 | 0.00 | 0.00 | 58 | 1012.8 |
| 20260503120213 | 6 | 242 | 1.6 | 11.3 | 0.00 | 0.00 | 0.00 | 64 | 1012.7 |
| 20260503110522 | 4 | 196 | 0.0 | 1.6 | 0.00 | 0.03 | 0.00 | 66 | 1012.7 |
| 20260503110420 | 4 | 222 | 0.0 | 1.6 | 0.00 | 0.03 | 0.00 | 66 | 1012.7 |
| 20260503090439 | 3 | 182 | 0.0 | 0.0 | 0.00 | 0.03 | 0.00 | 67 | 1013.4 |
| 20260503090336 | 3 | 182 | 0.0 | 0.0 | 0.00 | 0.03 | 0.00 | 67 | 1013.4 |
| 20260503081605 | 3 | 199 | 0.0 | 0.0 | 0.00 | 0.03 | 0.00 | 64 | 1013.6 |
| 20260503081239 | 3 | 199 | 0.0 | 0.0 | 0.00 | 0.03 | 0.00 | 65 | 1013.7 |
| 20260503081137 | 3 | 208 | 0.0 | 0.0 | 0.00 | 0.03 | 0.00 | 64 | 1013.7 |
| 20260503080808 | 3 | 221 | 0.0 | 0.0 | 0.00 | 0.03 | 0.00 | 65 | 1013.7 |
| 20260503080443 | 3 | 220 | 0.0 | 0.0 | 0.00 | 0.03 | 0.00 | 65 | 1013.7 |
| 20260503080335 | 3 | 219 | 0.0 | 0.0 | 0.00 | 0.03 | 0.00 | 65 | 1013.7 |
| 20260503072933 | 2 | 0 | 0.0 | 0.0 | 0.00 | 0.03 | 0.00 | 67 | 1013.8 |
| 20260503072827 | 2 | 240 | 0.0 | 0.0 | 0.00 | 0.03 | 0.00 | 67 | 1013.8 |
| 20260503072720 | 2 | 240 | 0.0 | 0.0 | 0.00 | 0.03 | 0.00 | 67 | 1013.8 |
| 20260503072616 | 2 | 240 | 0.0 | 0.0 | 0.00 | 0.03 | 0.00 | 66 | 1013.8 |
| 20260503072513 | 3 | 240 | 0.0 | 0.0 | 0.00 | 0.03 | 0.00 | 66 | 1013.8 |
| 20260503072411 | 3 | 240 | 0.0 | 0.0 | 0.00 | 0.03 | 0.00 | 66 | 1013.8 |
| 20260503072043 | 3 | 240 | 0.0 | 0.0 | 0.00 | 0.03 | 0.00 | 66 | 1013.8 |
| 20260503071939 | 3 | 240 | 0.0 | 0.0 | 0.00 | 0.03 | 0.00 | 66 | 1013.8 |
| 20260503071832 | 3 | 240 | 0.0 | 0.0 | 0.00 | 0.03 | 0.00 | 66 | 1013.8 |
| 20260503071725 | 3 | 240 | 0.0 | 0.0 | 0.00 | 0.03 | 0.00 | 66 | 1013.8 |
| 20260503071621 | 3 | 240 | 0.0 | 0.0 | 0.00 | 0.03 | 0.00 | 66 | 1013.8 |
| 20260503071514 | 3 | 240 | 0.0 | 0.0 | 0.00 | 0.03 | 0.00 | 66 | 1013.8 |
| 20260503071409 | 3 | 240 | 0.0 | 0.0 | 0.00 | 0.03 | 0.00 | 66 | 1013.8 |
| 20260503071302 | 3 | 240 | 0.0 | 0.0 | 0.00 | 0.03 | 0.00 | 66 | 1013.8 |
| 20260503071157 | 3 | 240 | 0.0 | 0.0 | 0.00 | 0.03 | 0.00 | 66 | 1013.8 |
| 20260503071052 | 3 | 240 | 0.0 | 0.0 | 0.00 | 0.03 | 0.00 | 66 | 1013.8 |
| 20260503070947 | 3 | 240 | 0.0 | 0.0 | 0.00 | 0.03 | 0.00 | 66 | 1013.8 |
| 20260503070624 | 3 | 240 | 0.0 | 0.0 | 0.00 | 0.03 | 0.00 | 65 | 1013.8 |
| 20260503070520 | 3 | 240 | 0.0 | 0.0 | 0.00 | 0.03 | 0.00 | 65 | 1013.8 |
| 20260503070416 | 3 | 240 | 0.0 | 0.0 | 0.00 | 0.03 | 0.00 | 66 | 1013.8 |
| 20260503060327 | 2 | 246 | 0.0 | 0.0 | 0.00 | 0.03 | 0.00 | 67 | 1014.3 |
| 20260503060222 | 2 | 263 | 0.0 | 0.0 | 0.00 | 0.03 | 0.00 | 67 | 1014.3 |
| 20260503054742 | 3 | 267 | 0.0 | 0.0 | 0.00 | 0.03 | 0.00 | 67 | 1014.4 |
| 20260503054635 | 3 | 267 | 0.0 | 0.0 | 0.00 | 0.03 | 0.00 | 67 | 1014.5 |
| 20260503054532 | 3 | 267 | 0.0 | 0.0 | 0.00 | 0.03 | 0.00 | 67 | 1014.4 |
| 20260503054426 | 3 | 267 | 0.0 | 0.0 | 0.00 | 0.03 | 0.00 | 67 | 1014.4 |
| 20260503054324 | 3 | 267 | 0.0 | 0.0 | 0.00 | 0.03 | 0.00 | 67 | 1014.5 |
| 20260503054220 | 3 | 267 | 0.0 | 0.0 | 0.00 | 0.03 | 0.00 | 66 | 1014.5 |
| 20260503054113 | 3 | 267 | 0.0 | 0.0 | 0.00 | 0.03 | 0.00 | 66 | 1014.5 |
| 20260503054010 | 3 | 267 | 0.0 | 0.0 | 0.00 | 0.03 | 0.00 | 66 | 1014.5 |
| 20260503053905 | 3 | 267 | 0.0 | 0.0 | 0.00 | 0.03 | 0.00 | 66 | 1014.5 |
| 20260503053802 | 3 | 267 | 0.0 | 0.0 | 0.00 | 0.03 | 0.00 | 66 | 1014.6 |
| 20260503053438 | 3 | 275 | 0.0 | 0.0 | 0.00 | 0.03 | 0.00 | 66 | 1014.6 |
| 20260503053113 | 3 | 275 | 0.0 | 0.0 | 0.00 | 0.03 | 0.00 | 67 | 1014.6 |
| 20260503053010 | 3 | 276 | 0.0 | 0.0 | 0.00 | 0.03 | 0.00 | 67 | 1014.6 |
| 20260503052907 | 3 | 0 | 0.0 | 0.0 | 0.00 | 0.03 | 0.00 | 66 | 1014.6 |
| 20260503052803 | 3 | 276 | 0.0 | 0.0 | 0.00 | 0.03 | 0.00 | 66 | 1014.6 |
| 20260503052659 | 3 | 276 | 0.0 | 0.0 | 0.00 | 0.03 | 0.00 | 66 | 1014.6 |
| 20260503052554 | 3 | 276 | 0.0 | 0.0 | 0.00 | 0.03 | 0.00 | 66 | 1014.7 |
| 20260503052447 | 3 | 276 | 0.0 | 0.0 | 0.00 | 0.03 | 0.00 | 66 | 1014.7 |
| 20260503052345 | 3 | 276 | 0.0 | 0.0 | 0.00 | 0.03 | 0.00 | 66 | 1014.7 |
| 20260503052243 | 3 | 276 | 0.0 | 0.0 | 0.00 | 0.03 | 0.00 | 66 | 1014.7 |
| 20260503052137 | 3 | 276 | 0.0 | 0.0 | 0.00 | 0.03 | 0.00 | 66 | 1014.6 |
| 20260503052031 | 3 | 276 | 0.0 | 0.0 | 0.00 | 0.03 | 0.00 | 66 | 1014.7 |
| 20260503051929 | 3 | 276 | 0.0 | 0.0 | 0.00 | 0.03 | 0.00 | 66 | 1014.7 |
| 20260503051822 | 3 | 276 | 0.0 | 0.0 | 0.00 | 0.03 | 0.00 | 66 | 1014.6 |
| 20260503051717 | 3 | 278 | 0.0 | 0.0 | 0.00 | 0.03 | 0.00 | 66 | 1014.7 |
| 20260503051614 | 3 | 277 | 0.0 | 0.0 | 0.00 | 0.03 | 0.00 | 66 | 1014.7 |
| 20260503051511 | 3 | 278 | 0.0 | 0.0 | 0.00 | 0.03 | 0.00 | 66 | 1014.7 |
| 20260503051408 | 3 | 278 | 0.0 | 0.0 | 0.00 | 0.03 | 0.00 | 66 | 1014.7 |
| 20260503051306 | 3 | 278 | 0.0 | 0.0 | 0.00 | 0.03 | 0.00 | 66 | 1014.7 |
| 20260503051203 | 3 | 277 | 0.0 | 0.0 | 0.00 | 0.03 | 0.00 | 66 | 1014.7 |
| 20260503050835 | 3 | 278 | 0.0 | 0.0 | 0.00 | 0.03 | 0.00 | 66 | 1014.7 |
| 20260503050731 | 3 | 278 | 0.0 | 0.0 | 0.00 | 0.03 | 0.00 | 66 | 1014.7 |
| 20260503050146 | 3 | 279 | 0.0 | 0.0 | 0.00 | 0.03 | 0.00 | 66 | 1014.7 |
| 20260503050041 | 3 | 279 | 0.0 | 0.0 | 0.00 | 0.03 | 0.00 | 66 | 1014.8 |
| 20260503045938 | 3 | 279 | 0.0 | 0.0 | 0.00 | 0.03 | 0.00 | 67 | 1014.8 |
| 20260503045833 | 3 | 282 | 0.0 | 0.0 | 0.00 | 0.03 | 0.00 | 67 | 1014.8 |
| 20260503045726 | 3 | 282 | 0.0 | 0.0 | 0.00 | 0.03 | 0.00 | 67 | 1014.8 |
| 20260503045618 | 3 | 282 | 0.0 | 0.0 | 0.00 | 0.03 | 0.00 | 67 | 1014.8 |
| 20260503045514 | 3 | 281 | 0.0 | 0.0 | 0.00 | 0.03 | 0.00 | 67 | 1014.8 |
| 20260503045411 | 3 | 282 | 0.0 | 0.0 | 0.00 | 0.03 | 0.00 | 67 | 1014.8 |
| 20260503045307 | 3 | 283 | 0.0 | 0.0 | 0.00 | 0.03 | 0.00 | 67 | 1014.8 |
| 20260503045200 | 3 | 283 | 0.0 | 0.0 | 0.00 | 0.03 | 0.00 | 66 | 1014.8 |
| 20260503045058 | 3 | 286 | 0.0 | 0.0 | 0.00 | 0.03 | 0.00 | 67 | 1014.8 |
| 20260503044954 | 3 | 286 | 0.0 | 0.0 | 0.00 | 0.03 | 0.00 | 67 | 1014.8 |
| 20260503044848 | 3 | 284 | 0.0 | 0.0 | 0.00 | 0.03 | 0.00 | 67 | 1014.8 |
| 20260503044745 | 3 | 286 | 0.0 | 0.0 | 0.00 | 0.03 | 0.00 | 67 | 1014.8 |
| 20260503044641 | 3 | 286 | 0.0 | 0.0 | 0.00 | 0.03 | 0.00 | 67 | 1014.8 |
| 20260503044310 | 3 | 286 | 0.0 | 0.0 | 0.00 | 0.03 | 0.00 | 68 | 1014.8 |
| 20260503044207 | 3 | 286 | 0.0 | 0.0 | 0.00 | 0.03 | 0.00 | 68 | 1014.8 |
| 20260503044100 | 3 | 286 | 0.0 | 0.0 | 0.00 | 0.03 | 0.00 | 68 | 1014.8 |
| 20260503043515 | 3 | 286 | 0.0 | 0.0 | 0.00 | 0.03 | 0.00 | 67 | 1014.8 |
| 20260503043410 | 3 | 286 | 0.0 | 0.0 | 0.00 | 0.03 | 0.00 | 67 | 1014.8 |
| 20260503043042 | 3 | 286 | 0.0 | 0.0 | 0.00 | 0.03 | 0.00 | 67 | 1014.7 |
| 20260503042937 | 3 | 286 | 0.0 | 0.0 | 0.00 | 0.03 | 0.00 | 67 | 1014.7 |
| 20260503042835 | 3 | 286 | 0.0 | 0.0 | 0.00 | 0.03 | 0.00 | 66 | 1014.8 |
| 20260503042732 | 3 | 286 | 0.0 | 0.0 | 0.00 | 0.03 | 0.00 | 66 | 1014.7 |
| 20260503042625 | 3 | 286 | 0.0 | 0.0 | 0.00 | 0.03 | 0.00 | 66 | 1014.7 |
| 20260503042520 | 3 | 286 | 0.0 | 0.0 | 0.00 | 0.03 | 0.00 | 66 | 1014.7 |
| 20260503042415 | 3 | 286 | 0.0 | 0.0 | 0.00 | 0.03 | 0.00 | 66 | 1014.7 |
| 20260503042308 | 3 | 286 | 0.0 | 0.0 | 0.00 | 0.03 | 0.00 | 66 | 1014.7 |
| 20260503042200 | 3 | 286 | 0.0 | 0.0 | 0.00 | 0.03 | 0.00 | 66 | 1014.7 |
| 20260503042055 | 3 | 286 | 0.0 | 0.0 | 0.00 | 0.03 | 0.00 | 66 | 1014.7 |
| 20260503041728 | 3 | 286 | 0.0 | 0.0 | 0.00 | 0.03 | 0.00 | 66 | 1014.8 |
| 20260503041626 | 3 | 286 | 0.0 | 0.0 | 0.00 | 0.03 | 0.00 | 66 | 1014.8 |
| 20260503041520 | 3 | 286 | 0.0 | 0.0 | 0.00 | 0.03 | 0.00 | 66 | 1014.8 |
| 20260503041153 | 3 | 286 | 0.0 | 0.0 | 0.00 | 0.03 | 0.00 | 66 | 1014.8 |
| 20260503041046 | 3 | 286 | 0.0 | 0.0 | 0.00 | 0.03 | 0.00 | 66 | 1014.9 |
| 20260503040939 | 3 | 286 | 0.0 | 0.0 | 0.00 | 0.03 | 0.00 | 65 | 1014.8 |
| 20260503040835 | 3 | 286 | 0.0 | 0.0 | 0.00 | 0.03 | 0.00 | 65 | 1014.9 |
| 20260503040509 | 3 | 286 | 0.0 | 0.0 | 0.00 | 0.03 | 0.00 | 66 | 1014.9 |
| 20260503040403 | 3 | 286 | 0.0 | 0.0 | 0.00 | 0.03 | 0.00 | 66 | 1014.9 |
| 20260503040300 | 3 | 286 | 0.0 | 0.0 | 0.00 | 0.03 | 0.00 | 66 | 1014.9 |
| 20260503035710 | 3 | 286 | 0.0 | 0.0 | 0.00 | 0.03 | 0.03 | 66 | 1014.9 |
| 20260503035345 | 3 | 286 | 0.0 | 0.0 | 0.00 | 0.03 | 0.03 | 66 | 1014.9 |
| 20260503035239 | 3 | 286 | 0.0 | 0.0 | 0.00 | 0.03 | 0.03 | 66 | 1014.9 |
| 20260503035131 | 3 | 286 | 0.0 | 0.0 | 0.00 | 0.03 | 0.03 | 66 | 1015.0 |
| 20260503035024 | 3 | 286 | 0.0 | 0.0 | 0.00 | 0.03 | 0.03 | 66 | 1014.9 |
| 20260503034917 | 3 | 286 | 0.0 | 0.0 | 0.00 | 0.03 | 0.03 | 66 | 1014.9 |
| 20260503034813 | 3 | 286 | 0.0 | 0.0 | 0.00 | 0.03 | 0.03 | 66 | 1015.0 |
| 20260503034706 | 3 | 286 | 0.0 | 0.0 | 0.00 | 0.03 | 0.03 | 66 | 1015.0 |
| 20260503034558 | 3 | 286 | 0.0 | 0.0 | 0.00 | 0.03 | 0.03 | 66 | 1015.0 |
| 20260503034453 | 3 | 286 | 0.0 | 0.0 | 0.00 | 0.03 | 0.03 | 66 | 1015.0 |
| 20260503034347 | 3 | 286 | 0.0 | 0.0 | 0.00 | 0.03 | 0.03 | 66 | 1015.0 |
| 20260503034242 | 3 | 286 | 0.0 | 0.0 | 0.00 | 0.03 | 0.03 | 66 | 1015.0 |
| 20260503034138 | 3 | 286 | 0.0 | 0.0 | 0.00 | 0.03 | 0.03 | 66 | 1015.0 |
| 20260503034034 | 3 | 286 | 0.0 | 0.0 | 0.00 | 0.03 | 0.03 | 67 | 1015.0 |
| 20260503033930 | 3 | 286 | 0.0 | 0.0 | 0.00 | 0.03 | 0.03 | 67 | 1014.9 |
| 20260503033824 | 3 | 286 | 0.0 | 0.0 | 0.00 | 0.03 | 0.03 | 67 | 1014.9 |
| 20260503033721 | 3 | 286 | 0.0 | 0.0 | 0.00 | 0.03 | 0.03 | 67 | 1014.9 |
| 20260503033616 | 3 | 286 | 0.0 | 0.0 | 0.00 | 0.03 | 0.03 | 68 | 1014.9 |
| 20260503033510 | 3 | 286 | 0.0 | 0.0 | 0.00 | 0.03 | 0.03 | 68 | 1014.9 |
| 20260503033149 | 3 | 286 | 0.0 | 0.0 | 0.00 | 0.03 | 0.03 | 68 | 1014.9 |
| 20260503033046 | 3 | 286 | 0.0 | 0.0 | 0.00 | 0.03 | 0.03 | 68 | 1015.0 |
| 20260503032939 | 3 | 286 | 0.0 | 0.0 | 0.00 | 0.03 | 0.03 | 68 | 1015.0 |
| 20260503032132 | 2 | 286 | 0.0 | 0.0 | 0.00 | 0.03 | 0.03 | 70 | 1015.0 |
| 20260503032028 | 2 | 286 | 0.0 | 0.0 | 0.00 | 0.03 | 0.03 | 71 | 1015.0 |
| 20260503031926 | 2 | 286 | 0.0 | 0.0 | 0.00 | 0.03 | 0.03 | 71 | 1015.1 |
| 20260503031819 | 2 | 286 | 0.0 | 0.0 | 0.00 | 0.03 | 0.03 | 72 | 1015.0 |
| 20260503031715 | 2 | 286 | 0.0 | 0.0 | 0.00 | 0.03 | 0.03 | 72 | 1015.0 |
| 20260503031611 | 2 | 286 | 0.0 | 0.0 | 0.00 | 0.03 | 0.03 | 72 | 1015.1 |
| 20260503031508 | 2 | 286 | 0.0 | 0.0 | 0.00 | 0.03 | 0.03 | 74 | 1015.1 |
| 20260503031140 | 2 | 286 | 0.0 | 0.0 | 0.00 | 0.03 | 0.03 | 77 | 1015.0 |
| 20260503031037 | 1 | 286 | 0.0 | 0.0 | 0.00 | 0.03 | 0.03 | 77 | 1015.1 |
| 20260503030712 | 1 | 286 | 0.0 | 0.0 | 0.00 | 0.03 | 0.03 | 78 | 1015.0 |
| 20260503030610 | 1 | 286 | 0.0 | 0.0 | 0.00 | 0.03 | 0.03 | 78 | 1015.0 |
| 20260503030505 | 1 | 286 | 0.0 | 0.0 | 0.00 | 0.03 | 0.03 | 78 | 1015.1 |
| 20260503030139 | 1 | 286 | 0.0 | 0.0 | 0.00 | 0.03 | 0.03 | 78 | 1015.1 |
| 20260503030036 | 1 | 286 | 0.0 | 0.0 | 0.00 | 0.03 | 0.03 | 78 | 1015.1 |
| 20260503025928 | 1 | 286 | 0.0 | 0.0 | 0.00 | 0.03 | 0.03 | 78 | 1015.1 |
| 20260503025824 | 1 | 286 | 0.0 | 0.0 | 0.00 | 0.03 | 0.03 | 79 | 1015.1 |
| 20260503025721 | 1 | 286 | 0.0 | 0.0 | 0.00 | 0.03 | 0.03 | 79 | 1015.1 |
| 20260503025618 | 1 | 286 | 0.0 | 0.0 | 0.00 | 0.03 | 0.03 | 78 | 1015.1 |
| 20260503025511 | 1 | 286 | 0.0 | 0.0 | 0.00 | 0.03 | 0.03 | 78 | 1015.1 |
| 20260503025142 | 1 | 286 | 0.0 | 0.0 | 0.00 | 0.03 | 0.03 | 79 | 1015.1 |
| 20260503025037 | 1 | 286 | 0.0 | 0.0 | 0.00 | 0.03 | 0.03 | 79 | 1015.1 |
| 20260503024931 | 1 | 286 | 0.0 | 0.0 | 0.00 | 0.03 | 0.03 | 79 | 1015.1 |
| 20260503024602 | 2 | 286 | 0.0 | 0.0 | 0.00 | 0.03 | 0.03 | 79 | 1015.2 |
| 20260503024456 | 2 | 286 | 0.0 | 0.0 | 0.00 | 0.03 | 0.03 | 79 | 1015.2 |
| 20260503024132 | 2 | 286 | 0.0 | 0.0 | 0.00 | 0.03 | 0.03 | 78 | 1015.2 |
| 20260503023810 | 2 | 286 | 0.0 | 0.0 | 0.00 | 0.03 | 0.03 | 78 | 1015.2 |
| 20260503023445 | 2 | 286 | 0.0 | 0.0 | 0.00 | 0.03 | 0.03 | 78 | 1015.1 |
| 20260503023342 | 2 | 286 | 0.0 | 0.0 | 0.00 | 0.03 | 0.03 | 78 | 1015.2 |
| 20260503023236 | 2 | 286 | 0.0 | 0.0 | 0.00 | 0.03 | 0.03 | 78 | 1015.2 |
| 20260503023131 | 2 | 286 | 0.0 | 0.0 | 0.00 | 0.03 | 0.03 | 78 | 1015.2 |
| 20260503022810 | 2 | 286 | 0.0 | 0.0 | 0.00 | 0.03 | 0.03 | 77 | 1015.2 |
| 20260503022705 | 2 | 286 | 0.0 | 0.0 | 0.00 | 0.03 | 0.03 | 77 | 1015.2 |
| 20260503022601 | 2 | 286 | 0.0 | 0.0 | 0.00 | 0.03 | 0.03 | 77 | 1015.1 |
| 20260503022458 | 2 | 286 | 0.0 | 0.0 | 0.00 | 0.03 | 0.03 | 77 | 1015.2 |
| 20260503022352 | 2 | 286 | 0.0 | 0.0 | 0.00 | 0.03 | 0.03 | 77 | 1015.1 |
| 20260503022244 | 2 | 286 | 0.0 | 0.0 | 0.00 | 0.03 | 0.03 | 77 | 1015.1 |
| 20260503022137 | 2 | 286 | 0.0 | 0.0 | 0.00 | 0.03 | 0.03 | 77 | 1015.1 |
| 20260503022030 | 2 | 286 | 0.0 | 0.0 | 0.00 | 0.03 | 0.03 | 77 | 1015.1 |
| 20260503021927 | 2 | 286 | 0.0 | 0.0 | 0.00 | 0.03 | 0.03 | 77 | 1015.1 |
| 20260503021825 | 2 | 286 | 0.0 | 0.0 | 0.00 | 0.03 | 0.03 | 77 | 1015.1 |
| 20260503021721 | 2 | 286 | 0.0 | 0.0 | 0.00 | 0.03 | 0.03 | 77 | 1015.1 |
| 20260503021615 | 2 | 286 | 0.0 | 0.0 | 0.00 | 0.03 | 0.03 | 78 | 1015.2 |
| 20260503021511 | 2 | 286 | 0.0 | 0.0 | 0.00 | 0.03 | 0.03 | 78 | 1015.1 |
| 20260503021147 | 2 | 286 | 0.0 | 0.0 | 0.00 | 0.03 | 0.03 | 77 | 1015.1 |
| 20260503021043 | 2 | 286 | 0.0 | 0.0 | 0.00 | 0.03 | 0.03 | 77 | 1015.1 |
| 20260503020941 | 2 | 286 | 0.0 | 0.0 | 0.00 | 0.03 | 0.03 | 77 | 1015.1 |
| 20260503020836 | 2 | 286 | 0.0 | 0.0 | 0.00 | 0.03 | 0.03 | 77 | 1015.1 |
| 20260503020728 | 2 | 286 | 0.0 | 0.0 | 0.00 | 0.03 | 0.03 | 76 | 1015.1 |
| 20260503020625 | 3 | 286 | 0.0 | 0.0 | 0.00 | 0.03 | 0.03 | 76 | 1015.1 |
| 20260503020522 | 3 | 286 | 0.0 | 0.0 | 0.00 | 0.03 | 0.03 | 76 | 1015.1 |
| 20260503020417 | 3 | 286 | 0.0 | 0.0 | 0.00 | 0.03 | 0.03 | 77 | 1015.1 |
| 20260503020313 | 3 | 286 | 0.0 | 0.0 | 0.00 | 0.03 | 0.03 | 77 | 1015.1 |
| 20260503020211 | 3 | 286 | 0.0 | 0.0 | 0.00 | 0.03 | 0.03 | 77 | 1015.2 |
| 20260503015847 | 3 | 286 | 0.0 | 0.0 | 0.00 | 0.03 | 0.03 | 76 | 1015.0 |
| 20260503015741 | 3 | 286 | 0.0 | 0.0 | 0.00 | 0.03 | 0.03 | 76 | 1015.0 |
| 20260503015635 | 3 | 286 | 0.0 | 0.0 | 0.00 | 0.03 | 0.03 | 76 | 1015.0 |
| 20260503015533 | 3 | 286 | 0.0 | 0.0 | 0.00 | 0.03 | 0.03 | 76 | 1015.0 |
| 20260503015429 | 3 | 286 | 0.0 | 0.0 | 0.00 | 0.03 | 0.03 | 76 | 1015.0 |
| 20260503015323 | 3 | 286 | 0.0 | 0.0 | 0.00 | 0.03 | 0.03 | 76 | 1015.0 |
| 20260503015220 | 3 | 286 | 0.0 | 0.0 | 0.00 | 0.03 | 0.03 | 76 | 1015.0 |
| 20260503014857 | 3 | 286 | 0.0 | 0.0 | 0.00 | 0.03 | 0.03 | 76 | 1015.0 |
| 20260503014752 | 3 | 286 | 0.0 | 0.0 | 0.00 | 0.03 | 0.03 | 76 | 1015.0 |
| 20260503014647 | 3 | 286 | 0.0 | 0.0 | 0.00 | 0.03 | 0.03 | 76 | 1014.9 |
| 20260503014542 | 3 | 286 | 0.0 | 0.0 | 0.00 | 0.03 | 0.03 | 76 | 1014.9 |
| 20260503014437 | 3 | 286 | 0.0 | 0.0 | 0.00 | 0.03 | 0.03 | 75 | 1014.9 |
| 20260503014331 | 3 | 286 | 0.0 | 0.0 | 0.00 | 0.03 | 0.03 | 75 | 1014.9 |
| 20260503014228 | 3 | 286 | 0.0 | 0.0 | 0.00 | 0.03 | 0.03 | 75 | 1014.9 |
| 20260503014123 | 4 | 286 | 0.0 | 0.0 | 0.00 | 0.03 | 0.03 | 75 | 1014.9 |
| 20260503014018 | 4 | 286 | 0.0 | 0.0 | 0.00 | 0.03 | 0.03 | 75 | 1014.9 |
| 20260503013913 | 4 | 286 | 0.0 | 0.0 | 0.00 | 0.03 | 0.03 | 75 | 1014.9 |
| 20260503013806 | 4 | 286 | 0.0 | 0.0 | 0.00 | 0.03 | 0.03 | 75 | 1014.9 |
| 20260503013702 | 4 | 286 | 0.0 | 0.0 | 0.00 | 0.03 | 0.03 | 75 | 1014.8 |
| 20260503013335 | 4 | 286 | 0.0 | 0.0 | 0.00 | 0.03 | 0.03 | 76 | 1014.8 |
| 20260503013228 | 4 | 286 | 0.0 | 0.0 | 0.00 | 0.03 | 0.03 | 75 | 1014.8 |
| 20260503012900 | 5 | 286 | 0.0 | 0.0 | 0.00 | 0.03 | 0.03 | 74 | 1014.8 |
| 20260503012758 | 5 | 286 | 0.0 | 0.0 | 0.00 | 0.03 | 0.03 | 73 | 1014.8 |
| 20260503012654 | 5 | 286 | 0.0 | 0.0 | 0.00 | 0.03 | 0.03 | 73 | 1014.8 |
| 20260503012547 | 5 | 286 | 0.0 | 0.0 | 0.00 | 0.03 | 0.03 | 72 | 1014.8 |
| 20260503012224 | 5 | 286 | 0.0 | 0.0 | 0.00 | 0.03 | 0.03 | 71 | 1014.9 |
| 20260503012121 | 5 | 286 | 0.0 | 0.0 | 0.00 | 0.03 | 0.03 | 71 | 1014.8 |
| 20260503012017 | 5 | 286 | 0.0 | 0.0 | 0.00 | 0.03 | 0.03 | 70 | 1014.8 |
| 20260503011651 | 5 | 286 | 0.0 | 0.0 | 0.00 | 0.03 | 0.03 | 69 | 1014.8 |
| 20260503011544 | 5 | 286 | 0.0 | 0.0 | 0.00 | 0.03 | 0.03 | 69 | 1014.8 |
| 20260503011439 | 5 | 286 | 0.0 | 0.0 | 0.00 | 0.03 | 0.03 | 68 | 1014.8 |
| 20260503011334 | 5 | 286 | 0.0 | 0.0 | 0.00 | 0.03 | 0.03 | 68 | 1014.8 |
| 20260503011232 | 5 | 286 | 0.0 | 0.0 | 0.00 | 0.03 | 0.03 | 68 | 1014.7 |
| 20260503011127 | 6 | 286 | 0.0 | 0.0 | 0.00 | 0.03 | 0.03 | 68 | 1014.8 |
| 20260503011023 | 6 | 286 | 0.0 | 0.0 | 0.00 | 0.03 | 0.03 | 67 | 1014.8 |
| 20260503010703 | 6 | 286 | 0.0 | 0.0 | 0.00 | 0.03 | 0.03 | 67 | 1014.8 |
| 20260503010554 | 6 | 286 | 0.0 | 0.0 | 0.00 | 0.03 | 0.03 | 67 | 1014.8 |
| 20260503010449 | 6 | 286 | 0.0 | 0.0 | 0.00 | 0.03 | 0.03 | 67 | 1014.8 |
| 20260503010125 | 6 | 286 | 0.0 | 0.0 | 0.00 | 0.03 | 0.03 | 65 | 1014.7 |
| 20260503010023 | 6 | 286 | 0.0 | 0.0 | 0.00 | 0.03 | 0.03 | 64 | 1014.7 |
| 20260503005921 | 6 | 286 | 0.0 | 0.0 | 0.00 | 0.03 | 0.03 | 63 | 1014.7 |
| 20260503005816 | 6 | 286 | 0.0 | 0.0 | 0.00 | 0.03 | 0.03 | 63 | 1014.7 |
| 20260503005711 | 6 | 286 | 0.0 | 0.0 | 0.00 | 0.03 | 0.03 | 63 | 1014.7 |
| 20260503005606 | 6 | 286 | 0.0 | 0.0 | 0.00 | 0.03 | 0.03 | 63 | 1014.7 |
| 20260503005503 | 6 | 286 | 0.0 | 0.0 | 0.00 | 0.03 | 0.03 | 63 | 1014.7 |
| 20260503005358 | 7 | 286 | 0.0 | 0.0 | 0.00 | 0.03 | 0.03 | 63 | 1014.7 |
| 20260503005252 | 7 | 286 | 0.0 | 0.0 | 0.00 | 0.03 | 0.03 | 62 | 1014.6 |
| 20260503005147 | 7 | 286 | 0.0 | 0.0 | 0.00 | 0.03 | 0.03 | 63 | 1014.6 |
| 20260503004822 | 7 | 286 | 0.0 | 0.0 | 0.00 | 0.03 | 0.03 | 61 | 1014.6 |
| 20260503004454 | 7 | 286 | 0.0 | 0.0 | 0.00 | 0.03 | 0.03 | 59 | 1014.6 |
| 20260503004347 | 7 | 286 | 0.0 | 0.0 | 0.00 | 0.03 | 0.03 | 59 | 1014.6 |
| 20260503004019 | 7 | 286 | 0.0 | 0.0 | 0.00 | 0.03 | 0.03 | 58 | 1014.6 |
| 20260503003916 | 7 | 286 | 0.0 | 0.0 | 0.00 | 0.03 | 0.03 | 57 | 1014.6 |
| 20260503003552 | 7 | 286 | 0.0 | 0.0 | 0.00 | 0.03 | 0.03 | 56 | 1014.7 |
| 20260503003446 | 7 | 286 | 0.0 | 0.0 | 0.00 | 0.03 | 0.03 | 56 | 1014.6 |
| 20260503003340 | 7 | 286 | 0.0 | 0.0 | 0.00 | 0.03 | 0.03 | 55 | 1014.7 |
| 20260503003237 | 7 | 286 | 0.0 | 0.0 | 0.00 | 0.03 | 0.03 | 55 | 1014.6 |
| 20260503003130 | 7 | 286 | 0.0 | 0.0 | 0.00 | 0.03 | 0.03 | 55 | 1014.6 |
| 20260503003025 | 7 | 286 | 0.0 | 0.0 | 0.00 | 0.03 | 0.03 | 54 | 1014.6 |
| 20260503002704 | 7 | 286 | 0.0 | 0.0 | 0.00 | 0.03 | 0.03 | 54 | 1014.6 |
| 20260503002559 | 7 | 286 | 0.0 | 0.0 | 0.00 | 0.03 | 0.03 | 54 | 1014.6 |
| 20260503002451 | 7 | 286 | 0.0 | 0.0 | 0.00 | 0.03 | 0.03 | 54 | 1014.6 |
| 20260503002345 | 7 | 286 | 0.0 | 0.0 | 0.00 | 0.03 | 0.03 | 54 | 1014.6 |
| 20260503002238 | 7 | 286 | 0.0 | 0.0 | 0.00 | 0.03 | 0.03 | 53 | 1014.6 |
| 20260503002131 | 7 | 286 | 0.0 | 0.0 | 0.00 | 0.03 | 0.03 | 53 | 1014.6 |
| 20260503002025 | 7 | 286 | 0.0 | 0.0 | 0.00 | 0.03 | 0.03 | 53 | 1014.6 |
| 20260503001922 | 7 | 286 | 0.0 | 0.0 | 0.00 | 0.03 | 0.03 | 53 | 1014.6 |
| 20260503001820 | 7 | 286 | 0.0 | 0.0 | 0.00 | 0.03 | 0.03 | 53 | 1014.6 |
| 20260503001455 | 7 | 286 | 0.0 | 0.0 | 0.00 | 0.03 | 0.03 | 54 | 1014.5 |
| 20260503001348 | 7 | 286 | 0.0 | 0.0 | 0.00 | 0.03 | 0.03 | 54 | 1014.5 |
| 20260503001021 | 7 | 286 | 0.0 | 0.0 | 0.00 | 0.03 | 0.03 | 54 | 1014.5 |
| 20260503000919 | 7 | 286 | 0.0 | 0.0 | 0.00 | 0.03 | 0.03 | 54 | 1014.5 |
| 20260503000814 | 7 | 286 | 0.0 | 0.0 | 0.00 | 0.03 | 0.03 | 54 | 1014.5 |
| 20260503000710 | 7 | 286 | 0.0 | 0.0 | 0.00 | 0.03 | 0.03 | 54 | 1014.5 |
| 20260503000606 | 7 | 286 | 0.0 | 0.0 | 0.00 | 0.03 | 0.03 | 55 | 1014.5 |
| 20260503000502 | 7 | 286 | 0.0 | 0.0 | 0.00 | 0.03 | 0.03 | 55 | 1014.5 |
| 20260503000142 | 8 | 286 | 0.0 | 0.0 | 0.00 | 0.03 | 0.03 | 54 | 1014.5 |
| 20260503000035 | 8 | 286 | 0.0 | 0.0 | 0.00 | 0.03 | 0.03 | 54 | 1014.6 |
| 20260502235928 | 8 | 286 | 0.0 | 0.0 | 0.00 | 0.03 | 0.03 | 54 | 1014.6 |
| 20260502235558 | 8 | 286 | 0.0 | 0.0 | 0.00 | 0.03 | 0.03 | 52 | 1014.6 |
| 20260502235452 | 8 | 286 | 0.0 | 0.0 | 0.00 | 0.03 | 0.03 | 52 | 1014.5 |
| 20260502235347 | 8 | 286 | 0.0 | 0.0 | 0.00 | 0.03 | 0.03 | 52 | 1014.5 |
| 20260502235243 | 8 | 286 | 0.0 | 0.0 | 0.00 | 0.03 | 0.03 | 51 | 1014.6 |
| 20260502235137 | 8 | 286 | 0.0 | 0.0 | 0.00 | 0.03 | 0.03 | 51 | 1014.6 |
| 20260502235035 | 8 | 286 | 0.0 | 0.0 | 0.00 | 0.03 | 0.03 | 51 | 1014.6 |
| 20260502234713 | 8 | 285 | 0.0 | 0.0 | 0.00 | 0.03 | 0.03 | 50 | 1014.6 |
| 20260502233910 | 8 | 286 | 0.0 | 6.4 | 0.00 | 0.03 | 0.03 | 51 | 1014.7 |
| 20260502233808 | 8 | 285 | 0.0 | 0.0 | 0.00 | 0.03 | 0.03 | 50 | 1014.6 |
| 20260502233703 | 8 | 286 | 0.0 | 0.0 | 0.00 | 0.03 | 0.03 | 50 | 1014.6 |
| 20260502233336 | 8 | 286 | 1.6 | 4.8 | 0.00 | 0.03 | 0.03 | 50 | 1014.6 |
| 20260502233233 | 8 | 286 | 0.0 | 4.8 | 0.00 | 0.03 | 0.03 | 50 | 1014.6 |
| 20260502233127 | 8 | 288 | 0.0 | 4.8 | 0.00 | 0.03 | 0.03 | 50 | 1014.7 |
| 20260502232801 | 8 | 272 | 0.0 | 4.8 | 0.00 | 0.03 | 0.03 | 51 | 1014.7 |
| 20260502232658 | 8 | 272 | 0.0 | 4.8 | 0.00 | 0.03 | 0.03 | 51 | 1014.7 |
| 20260502232556 | 8 | 274 | 0.0 | 4.8 | 0.00 | 0.03 | 0.03 | 52 | 1014.7 |
| 20260502232450 | 8 | 300 | 0.0 | 3.2 | 0.00 | 0.03 | 0.03 | 53 | 1014.7 |
| 20260502232124 | 8 | 302 | 3.2 | 0.0 | 0.00 | 0.03 | 0.03 | 51 | 1014.6 |
| 20260502232022 | 8 | 302 | 3.2 | 0.0 | 0.00 | 0.03 | 0.03 | 51 | 1014.6 |
| 20260502231918 | 8 | 301 | 3.2 | 9.7 | 0.00 | 0.03 | 0.03 | 50 | 1014.7 |
| 20260502231814 | 8 | 301 | 3.2 | 9.7 | 0.00 | 0.03 | 0.03 | 49 | 1014.6 |
| 20260502231711 | 8 | 302 | 3.2 | 9.7 | 0.00 | 0.03 | 0.03 | 50 | 1014.6 |
| 20260502231608 | 8 | 289 | 3.2 | 9.7 | 0.00 | 0.03 | 0.03 | 50 | 1014.6 |
| 20260502231504 | 8 | 279 | 3.2 | 9.7 | 0.00 | 0.03 | 0.03 | 50 | 1014.7 |
| 20260502231357 | 8 | 286 | 3.2 | 11.3 | 0.00 | 0.03 | 0.03 | 49 | 1014.7 |
| 20260502231253 | 8 | 300 | 1.6 | 11.3 | 0.00 | 0.03 | 0.03 | 50 | 1014.7 |
| 20260502231149 | 8 | 275 | 1.6 | 11.3 | 0.00 | 0.03 | 0.03 | 50 | 1014.7 |
| 20260502231044 | 8 | 0 | 3.2 | 11.3 | 0.00 | 0.03 | 0.03 | 51 | 1014.7 |
| 20260502230938 | 8 | 280 | 3.2 | 11.3 | 0.00 | 0.03 | 0.03 | 50 | 1014.7 |
| 20260502230833 | 8 | 281 | 3.2 | 11.3 | 0.00 | 0.03 | 0.03 | 50 | 1014.7 |
| 20260502230505 | 8 | 292 | 3.2 | 11.3 | 0.00 | 0.03 | 0.03 | 50 | 1014.8 |
| 20260502230401 | 8 | 292 | 3.2 | 11.3 | 0.00 | 0.03 | 0.03 | 49 | 1014.8 |
| 20260502230257 | 8 | 273 | 3.2 | 11.3 | 0.00 | 0.03 | 0.03 | 50 | 1014.9 |
| 20260502230155 | 8 | 309 | 3.2 | 11.3 | 0.00 | 0.03 | 0.03 | 50 | 1014.8 |
| 20260502230046 | 8 | 313 | 3.2 | 11.3 | 0.00 | 0.03 | 0.03 | 49 | 1014.8 |
| 20260502225241 | 8 | 287 | 1.6 | 9.7 | 0.00 | 0.03 | 0.03 | 52 | 1014.8 |
| 20260502225134 | 8 | 286 | 3.2 | 9.7 | 0.00 | 0.03 | 0.03 | 51 | 1014.9 |
| 20260502225031 | 8 | 294 | 3.2 | 9.7 | 0.00 | 0.03 | 0.03 | 50 | 1014.8 |
| 20260502224928 | 8 | 292 | 3.2 | 9.7 | 0.00 | 0.03 | 0.03 | 52 | 1014.8 |
| 20260502224821 | 8 | 343 | 3.2 | 9.7 | 0.00 | 0.03 | 0.03 | 51 | 1014.9 |
| 20260502224713 | 8 | 300 | 3.2 | 9.7 | 0.00 | 0.03 | 0.03 | 51 | 1014.9 |
| 20260502224610 | 8 | 300 | 3.2 | 9.7 | 0.00 | 0.03 | 0.03 | 50 | 1014.9 |
| 20260502224508 | 8 | 300 | 3.2 | 9.7 | 0.00 | 0.03 | 0.03 | 50 | 1014.8 |
| 20260502224402 | 8 | 300 | 3.2 | 9.7 | 0.00 | 0.03 | 0.03 | 50 | 1014.9 |
| 20260502224255 | 8 | 300 | 3.2 | 9.7 | 0.00 | 0.03 | 0.03 | 50 | 1014.9 |
| 20260502224148 | 8 | 256 | 3.2 | 9.7 | 0.00 | 0.03 | 0.03 | 49 | 1014.9 |
| 20260502224041 | 8 | 291 | 1.6 | 9.7 | 0.00 | 0.03 | 0.03 | 50 | 1014.9 |
| 20260502223936 | 8 | 292 | 1.6 | 9.7 | 0.00 | 0.03 | 0.03 | 51 | 1014.9 |
| 20260502223829 | 8 | 290 | 1.6 | 9.7 | 0.00 | 0.03 | 0.03 | 51 | 1014.9 |
| 20260502223245 | 8 | 279 | 3.2 | 14.5 | 0.00 | 0.03 | 0.03 | 50 | 1014.9 |
| 20260502223140 | 8 | 295 | 4.8 | 14.5 | 0.00 | 0.03 | 0.03 | 49 | 1014.9 |
| 20260502223038 | 8 | 294 | 4.8 | 14.5 | 0.00 | 0.03 | 0.03 | 51 | 1014.9 |
| 20260502222714 | 8 | 306 | 4.8 | 14.5 | 0.00 | 0.03 | 0.03 | 49 | 1014.9 |
| 20260502222129 | 8 | 298 | 4.8 | 14.5 | 0.00 | 0.03 | 0.03 | 50 | 1014.9 |
| 20260502222021 | 8 | 267 | 4.8 | 14.5 | 0.00 | 0.05 | 0.03 | 50 | 1014.9 |
| 20260502221656 | 8 | 271 | 3.2 | 14.5 | 0.00 | 0.05 | 0.03 | 49 | 1014.9 |
| 20260502221550 | 8 | 276 | 1.6 | 14.5 | 0.00 | 0.05 | 0.03 | 50 | 1014.9 |
| 20260502221443 | 8 | 280 | 1.6 | 14.5 | 0.00 | 0.05 | 0.03 | 51 | 1014.9 |
| 20260502221337 | 8 | 284 | 1.6 | 14.5 | 0.00 | 0.05 | 0.03 | 52 | 1014.9 |
| 20260502221234 | 8 | 280 | 1.6 | 14.5 | 0.00 | 0.05 | 0.03 | 52 | 1014.9 |
| 20260502221129 | 8 | 287 | 1.6 | 14.5 | 0.00 | 0.05 | 0.03 | 50 | 1014.9 |
| 20260502221027 | 8 | 287 | 3.2 | 14.5 | 0.00 | 0.05 | 0.03 | 52 | 1014.9 |
| 20260502220924 | 8 | 296 | 3.2 | 14.5 | 0.00 | 0.05 | 0.03 | 51 | 1014.9 |
| 20260502220822 | 8 | 252 | 3.2 | 14.5 | 0.00 | 0.05 | 0.03 | 51 | 1014.9 |
| 20260502220718 | 8 | 220 | 3.2 | 16.1 | 0.00 | 0.05 | 0.03 | 52 | 1014.9 |
| 20260502220354 | 8 | 286 | 1.6 | 16.1 | 0.00 | 0.05 | 0.03 | 51 | 1014.9 |
| 20260502215811 | 8 | 304 | 3.2 | 16.1 | 0.00 | 0.05 | 0.03 | 51 | 1014.8 |
| 20260502215709 | 8 | 303 | 4.8 | 0.0 | 0.00 | 0.05 | 0.03 | 50 | 1014.8 |
| 20260502215606 | 8 | 303 | 6.4 | 16.1 | 0.00 | 0.05 | 0.03 | 50 | 1014.8 |
| 20260502215504 | 8 | 304 | 6.4 | 16.1 | 0.00 | 0.05 | 0.03 | 50 | 1014.8 |
| 20260502215358 | 8 | 305 | 6.4 | 16.1 | 0.00 | 0.05 | 0.03 | 49 | 1014.8 |
| 20260502215252 | 8 | 292 | 6.4 | 16.1 | 0.00 | 0.05 | 0.03 | 48 | 1014.8 |
| 20260502215145 | 8 | 273 | 6.4 | 16.1 | 0.00 | 0.05 | 0.03 | 49 | 1014.8 |
| 20260502215043 | 8 | 296 | 6.4 | 16.1 | 0.00 | 0.05 | 0.03 | 50 | 1014.8 |
| 20260502214941 | 8 | 280 | 6.4 | 16.1 | 0.00 | 0.05 | 0.03 | 49 | 1014.8 |
| 20260502214835 | 8 | 284 | 4.8 | 16.1 | 0.00 | 0.05 | 0.03 | 51 | 1014.8 |
| 20260502214732 | 8 | 346 | 4.8 | 11.3 | 0.00 | 0.05 | 0.03 | 50 | 1014.8 |
| 20260502214629 | 8 | 298 | 4.8 | 11.3 | 0.00 | 0.05 | 0.03 | 51 | 1014.8 |
| 20260502214301 | 8 | 295 | 3.2 | 11.3 | 0.00 | 0.05 | 0.03 | 50 | 1014.9 |
| 20260502214158 | 8 | 259 | 3.2 | 11.3 | 0.00 | 0.05 | 0.03 | 48 | 1014.9 |
| 20260502214052 | 8 | 292 | 3.2 | 11.3 | 0.00 | 0.05 | 0.03 | 48 | 1014.9 |
| 20260502213948 | 8 | 290 | 3.2 | 11.3 | 0.00 | 0.05 | 0.03 | 49 | 1014.8 |
| 20260502213845 | 8 | 331 | 1.6 | 9.7 | 0.00 | 0.05 | 0.03 | 51 | 1014.8 |
| 20260502213520 | 8 | 269 | 1.6 | 14.5 | 0.00 | 0.05 | 0.03 | 50 | 1014.9 |
| 20260502213154 | 8 | 315 | 3.2 | 14.5 | 0.00 | 0.05 | 0.03 | 50 | 1014.9 |
| 20260502213051 | 8 | 325 | 3.2 | 14.5 | 0.00 | 0.05 | 0.03 | 49 | 1014.9 |
| 20260502212729 | 8 | 334 | 6.4 | 19.3 | 0.00 | 0.05 | 0.03 | 50 | 1014.9 |
| 20260502212622 | 8 | 285 | 6.4 | 19.3 | 0.00 | 0.05 | 0.03 | 48 | 1014.9 |
| 20260502212517 | 8 | 264 | 8.0 | 19.3 | 0.00 | 0.05 | 0.03 | 48 | 1014.9 |
| 20260502212410 | 8 | 256 | 6.4 | 19.3 | 0.00 | 0.05 | 0.03 | 49 | 1014.9 |
| 20260502212305 | 8 | 292 | 8.0 | 19.3 | 0.00 | 0.05 | 0.03 | 50 | 1014.9 |
| 20260502212156 | 8 | 313 | 8.0 | 19.3 | 0.00 | 0.05 | 0.03 | 48 | 1015.0 |
| 20260502212051 | 8 | 290 | 8.0 | 19.3 | 0.00 | 0.05 | 0.03 | 47 | 1014.9 |
| 20260502211945 | 8 | 269 | 8.0 | 19.3 | 0.00 | 0.05 | 0.03 | 47 | 1015.0 |
| 20260502211839 | 8 | 273 | 8.0 | 19.3 | 0.00 | 0.05 | 0.03 | 47 | 1015.0 |
| 20260502211737 | 8 | 283 | 6.4 | 19.3 | 0.00 | 0.05 | 0.03 | 48 | 1015.0 |
| 20260502211630 | 8 | 282 | 6.4 | 19.3 | 0.00 | 0.05 | 0.03 | 50 | 1015.0 |
| 20260502211526 | 8 | 283 | 6.4 | 19.3 | 0.00 | 0.05 | 0.03 | 50 | 1015.0 |
| 20260502211422 | 8 | 267 | 6.4 | 19.3 | 0.00 | 0.05 | 0.03 | 49 | 1015.0 |
| 20260502211316 | 8 | 281 | 6.4 | 19.3 | 0.00 | 0.05 | 0.03 | 48 | 1015.0 |
| 20260502211212 | 8 | 286 | 6.4 | 19.3 | 0.00 | 0.05 | 0.03 | 48 | 1015.0 |
| 20260502211106 | 8 | 263 | 6.4 | 19.3 | 0.00 | 0.05 | 0.03 | 49 | 1015.0 |
| 20260502211000 | 8 | 305 | 6.4 | 19.3 | 0.00 | 0.05 | 0.03 | 49 | 1015.0 |
| 20260502210416 | 8 | 243 | 6.4 | 19.3 | 0.00 | 0.05 | 0.03 | 50 | 1015.0 |
| 20260502210313 | 8 | 317 | 6.4 | 19.3 | 0.00 | 0.05 | 0.03 | 49 | 1015.1 |
| 20260502210210 | 8 | 345 | 6.4 | 19.3 | 0.00 | 0.05 | 0.03 | 49 | 1015.0 |
| 20260502210105 | 8 | 271 | 8.0 | 19.3 | 0.00 | 0.05 | 0.03 | 48 | 1015.0 |
| 20260502205740 | 8 | 290 | 8.0 | 19.3 | 0.00 | 0.05 | 0.03 | 48 | 1015.1 |
| 20260502205637 | 8 | 267 | 6.4 | 12.9 | 0.00 | 0.05 | 0.03 | 48 | 1015.1 |
| 20260502205530 | 8 | 306 | 6.4 | 14.5 | 0.00 | 0.05 | 0.03 | 48 | 1015.0 |
| 20260502205206 | 8 | 294 | 6.4 | 14.5 | 0.00 | 0.05 | 0.03 | 48 | 1015.0 |
| 20260502204839 | 8 | 26 | 6.4 | 14.5 | 0.00 | 0.05 | 0.03 | 48 | 1015.1 |
| 20260502204731 | 8 | 293 | 4.8 | 14.5 | 0.00 | 0.05 | 0.03 | 48 | 1015.0 |
| 20260502204404 | 8 | 315 | 6.4 | 19.3 | 0.00 | 0.05 | 0.03 | 49 | 1015.1 |
| 20260502204035 | 8 | 299 | 6.4 | 19.3 | 0.00 | 0.05 | 0.03 | 49 | 1015.1 |
| 20260502203713 | 8 | 304 | 6.4 | 19.3 | 0.00 | 0.05 | 0.03 | 49 | 1015.2 |
| 20260502203610 | 8 | 337 | 6.4 | 19.3 | 0.00 | 0.05 | 0.03 | 49 | 1015.2 |
| 20260502203504 | 8 | 339 | 6.4 | 19.3 | 0.00 | 0.05 | 0.03 | 49 | 1015.2 |
| 20260502203139 | 8 | 311 | 6.4 | 19.3 | 0.00 | 0.05 | 0.03 | 47 | 1015.2 |
| 20260502203034 | 8 | 292 | 6.4 | 19.3 | 0.00 | 0.05 | 0.03 | 49 | 1015.2 |
| 20260502202928 | 8 | 275 | 6.4 | 19.3 | 0.00 | 0.05 | 0.03 | 48 | 1015.2 |
| 20260502202825 | 8 | 282 | 6.4 | 19.3 | 0.00 | 0.05 | 0.03 | 49 | 1015.2 |
| 20260502202718 | 8 | 283 | 6.4 | 19.3 | 0.00 | 0.05 | 0.03 | 48 | 1015.3 |
| 20260502202614 | 8 | 272 | 6.4 | 16.1 | 0.00 | 0.05 | 0.03 | 49 | 1015.2 |
| 20260502202511 | 8 | 269 | 6.4 | 16.1 | 0.00 | 0.05 | 0.03 | 50 | 1015.2 |
| 20260502202406 | 8 | 278 | 6.4 | 16.1 | 0.00 | 0.05 | 0.03 | 50 | 1015.3 |
| 20260502202259 | 8 | 316 | 8.0 | 16.1 | 0.00 | 0.05 | 0.03 | 49 | 1015.2 |
| 20260502201931 | 8 | 282 | 6.4 | 16.1 | 0.00 | 0.05 | 0.03 | 48 | 1015.2 |
| 20260502201605 | 8 | 288 | 6.4 | 16.1 | 0.00 | 0.05 | 0.03 | 45 | 1015.3 |
| 20260502201503 | 8 | 276 | 4.8 | 16.1 | 0.00 | 0.05 | 0.03 | 47 | 1015.3 |
| 20260502201358 | 8 | 265 | 4.8 | 16.1 | 0.00 | 0.05 | 0.03 | 46 | 1015.3 |
| 20260502201251 | 8 | 344 | 4.8 | 16.1 | 0.00 | 0.05 | 0.03 | 47 | 1015.3 |
| 20260502201147 | 8 | 307 | 4.8 | 16.1 | 0.00 | 0.05 | 0.03 | 47 | 1015.3 |
| 20260502201043 | 8 | 298 | 4.8 | 16.1 | 0.00 | 0.05 | 0.03 | 49 | 1015.3 |
| 20260502200937 | 8 | 340 | 6.4 | 16.1 | 0.00 | 0.05 | 0.03 | 48 | 1015.4 |
| 20260502200835 | 8 | 338 | 6.4 | 16.1 | 0.00 | 0.05 | 0.03 | 47 | 1015.3 |
| 20260502200247 | 8 | 277 | 4.8 | 12.9 | 0.00 | 0.05 | 0.03 | 48 | 1015.4 |
| 20260502200140 | 8 | 317 | 4.8 | 12.9 | 0.00 | 0.05 | 0.03 | 49 | 1015.4 |
| 20260502200032 | 8 | 302 | 3.2 | 11.3 | 0.00 | 0.05 | 0.03 | 49 | 1015.5 |
| 20260502195926 | 8 | 314 | 3.2 | 11.3 | 0.00 | 0.05 | 0.03 | 47 | 1015.4 |
| 20260502195822 | 8 | 16 | 3.2 | 11.3 | 0.00 | 0.05 | 0.03 | 49 | 1015.4 |
| 20260502195720 | 8 | 277 | 3.2 | 11.3 | 0.00 | 0.05 | 0.03 | 48 | 1015.5 |
| 20260502195616 | 8 | 302 | 3.2 | 11.3 | 0.00 | 0.05 | 0.03 | 48 | 1015.5 |
| 20260502195510 | 8 | 304 | 3.2 | 9.7 | 0.00 | 0.05 | 0.03 | 49 | 1015.4 |
| 20260502195407 | 8 | 279 | 3.2 | 9.7 | 0.00 | 0.05 | 0.03 | 47 | 1015.5 |
| 20260502195037 | 8 | 308 | 4.8 | 0.0 | 0.00 | 0.05 | 0.03 | 46 | 1015.4 |
| 20260502194934 | 8 | 308 | 4.8 | 14.5 | 0.00 | 0.05 | 0.03 | 45 | 1015.5 |
| 20260502194831 | 8 | 0 | 4.8 | 14.5 | 0.00 | 0.05 | 0.03 | 46 | 1015.5 |
| 20260502194727 | 8 | 347 | 4.8 | 14.5 | 0.00 | 0.05 | 0.03 | 46 | 1015.5 |
| 20260502194359 | 8 | 269 | 4.8 | 14.5 | 0.00 | 0.05 | 0.03 | 49 | 1015.5 |
| 20260502194254 | 8 | 271 | 4.8 | 14.5 | 0.00 | 0.05 | 0.03 | 47 | 1015.6 |
| 20260502194152 | 8 | 298 | 4.8 | 14.5 | 0.00 | 0.05 | 0.03 | 48 | 1015.6 |
| 20260502194047 | 8 | 281 | 4.8 | 14.5 | 0.00 | 0.05 | 0.03 | 47 | 1015.5 |
| 20260502193943 | 8 | 245 | 4.8 | 12.9 | 0.00 | 0.05 | 0.03 | 48 | 1015.6 |
| 20260502193838 | 8 | 252 | 4.8 | 12.9 | 0.00 | 0.05 | 0.03 | 51 | 1015.6 |
| 20260502193731 | 8 | 264 | 4.8 | 12.9 | 0.00 | 0.05 | 0.03 | 48 | 1015.6 |
| 20260502193627 | 8 | 277 | 4.8 | 16.1 | 0.00 | 0.05 | 0.03 | 49 | 1015.6 |
| 20260502193524 | 8 | 290 | 4.8 | 16.1 | 0.00 | 0.05 | 0.03 | 48 | 1015.6 |
| 20260502193416 | 8 | 290 | 4.8 | 16.1 | 0.00 | 0.05 | 0.03 | 49 | 1015.6 |
| 20260502192835 | 8 | 323 | 4.8 | 16.1 | 0.00 | 0.05 | 0.03 | 48 | 1015.7 |
| 20260502192033 | 8 | 329 | 8.0 | 20.9 | 0.00 | 0.05 | 0.03 | 45 | 1015.7 |
| 20260502191711 | 8 | 308 | 8.0 | 20.9 | 0.00 | 0.05 | 0.03 | 47 | 1015.8 |
| 20260502191606 | 8 | 348 | 8.0 | 20.9 | 0.00 | 0.05 | 0.03 | 47 | 1015.8 |
| 20260502191501 | 8 | 289 | 8.0 | 20.9 | 0.00 | 0.05 | 0.03 | 47 | 1015.8 |
| 20260502191354 | 8 | 267 | 6.4 | 20.9 | 0.00 | 0.05 | 0.03 | 46 | 1015.8 |
| 20260502191247 | 8 | 267 | 6.4 | 20.9 | 0.00 | 0.05 | 0.03 | 46 | 1015.8 |
| 20260502191140 | 8 | 307 | 6.4 | 20.9 | 0.00 | 0.05 | 0.03 | 45 | 1015.8 |
| 20260502191036 | 8 | 309 | 6.4 | 20.9 | 0.00 | 0.05 | 0.03 | 45 | 1015.8 |
| 20260502190930 | 8 | 334 | 8.0 | 20.9 | 0.00 | 0.05 | 0.03 | 46 | 1015.8 |
| 20260502190823 | 8 | 315 | 8.0 | 20.9 | 0.00 | 0.05 | 0.03 | 48 | 1015.9 |
| 20260502190456 | 7 | 298 | 8.0 | 19.3 | 0.00 | 0.05 | 0.03 | 46 | 1015.9 |
| 20260502190352 | 7 | 267 | 8.0 | 19.3 | 0.00 | 0.05 | 0.03 | 47 | 1015.9 |
| 20260502190247 | 7 | 290 | 8.0 | 19.3 | 0.00 | 0.05 | 0.03 | 47 | 1015.9 |
| 20260502190140 | 7 | 281 | 8.0 | 19.3 | 0.00 | 0.05 | 0.03 | 48 | 1015.9 |
| 20260502190033 | 7 | 259 | 6.4 | 19.3 | 0.00 | 0.05 | 0.03 | 46 | 1016.0 |
| 20260502185928 | 7 | 307 | 6.4 | 17.7 | 0.00 | 0.05 | 0.03 | 47 | 1016.0 |
| 20260502185823 | 7 | 273 | 6.4 | 17.7 | 0.00 | 0.05 | 0.03 | 47 | 1016.0 |
| 20260502185721 | 8 | 294 | 6.4 | 17.7 | 0.00 | 0.05 | 0.03 | 48 | 1016.0 |
| 20260502185617 | 8 | 300 | 6.4 | 17.7 | 0.00 | 0.05 | 0.03 | 48 | 1016.0 |
| 20260502185511 | 8 | 267 | 6.4 | 17.7 | 0.00 | 0.05 | 0.03 | 49 | 1016.0 |
| 20260502185406 | 7 | 302 | 6.4 | 17.7 | 0.00 | 0.05 | 0.03 | 50 | 1016.0 |
| 20260502185305 | 7 | 217 | 6.4 | 17.7 | 0.00 | 0.05 | 0.03 | 49 | 1016.0 |